Regional Weather Roundup
Issued by NWS Northern Indiana

Home | Current Version | Previous Version | Graphics & Text | Print | Product List | Glossary On
Versions: 1 2 3 4 5 6 7 8 9 10 11 12 13 14 15 16 17 18 19 20 21 22 23 24 25 26 27 28 29 30 31 32 33 34 35 36 37 38 39 40 41 42 43 44 45 46 47 48 49 50
000
ASUS43 KIWX 311910
RWRIWX

KIWX WEATHER ROUNDUP
NATIONAL WEATHER SERVICE NORTHERN INDIANA
300 PM EDT TUE MAY 31 2016

NOTE: "FAIR" INDICATES FEW OR NO CLOUDS BELOW 12,000 FEET WITH NO
SIGNIFICANT WEATHER AND/OR OBSTRUCTIONS TO VISIBILITY.

* THESE STATIONS ARE NOT UNDER NWS QUALITY CONTROL. THEY ALSO MAY NOT
  REPORT WEATHER SUCH AS PRECIPITATION OR FOG.

INZ001>027-312000-
NORTHERN INDIANA

CITY           SKY/WX    TMP DP  RH WIND       PRES   REMARKS
GARY*          PTSUNNY   84  68  58 NE9       29.95F
VALPARAISO     MOSUNNY   86  56  35 E13G20    29.97F
MICHIGAN CITY* PTSUNNY   84  59  42 E7        29.98F
LAPORTE*       PTSUNNY   87  54  32 E7        29.99F
KNOX*            N/A     88  37  16 E6          N/A
SOUTH BEND     CLOUDY    83  54  36 E8        30.01
ELKHART*       PTSUNNY   82  57  42 E5        30.02F
GOSHEN         SUNNY     86  51  29 SE8       30.00F
MONTICELLO*    CLOUDY    87  44  22 SE5       29.94F
LOGANSPORT*    CLOUDY    84  52  32 CALM      29.97F
ROCHESTER*     SUNNY     88  54  31 SE8       29.99F
WARSAW*        SUNNY     84  54  34 CALM      30.00F
ANGOLA*          N/A     84  48  28 S6        30.03S
FORT WAYNE     PTSUNNY   85  55  35 SE8       30.00F
HUNTINGTON*    PTSUNNY  N/A N/A N/A SE6       29.99F
PERU/GRISSOM   SUNNY     87  56  35 VRB6      29.96F
MARION*        MOSUNNY   86  54  33 E10       29.99F

$$
INZ028>050-312000-
CENTRAL INDIANA

CITY           SKY/WX    TMP DP  RH WIND       PRES   REMARKS
LAFAYETTE      CLOUDY    85  54  34 VRB7      29.94F
KOKOMO*        PTSUNNY   84  57  39 SE5       29.97S
MUNCIE*        MOSUNNY   89  49  25 VRB5      29.98F
INDIANAPOLIS   MOSUNNY   83  58  42 SW12      29.97F

$$
MIZ043>046-050>051-056>058-064>065-071>073-077>080-312000-
SOUTHWEST LOWER MICHIGAN

CITY           SKY/WX    TMP DP  RH WIND       PRES   REMARKS
BATTLE CREEK   PTSUNNY   81  46  29 SE13      30.05S
BENTON HARBOR  PTSUNNY   82  51  34 SE7       30.00F
COLDWATER*     CLOUDY    81  46  29 E10       30.04S
HILLSDALE*     CLOUDY    82  29  14 E12G17    30.05S
HOLLAND        MOSUNNY   83  47  28 SE15G22   30.02F
GRAND RAPIDS   PTSUNNY   84  48  28 E10       30.04S
KALAMAZOO      CLOUDY    82  46  28 VRB3      30.03F
STURGIS*       MOSUNNY   81  48  31 E5        30.02S
THREE RIVERS*  FAIR      82  45  27 E8        30.03F

$$
OHZ001>008-015>018-024>025-312000-
NORTHWEST OHIO

CITY           SKY/WX    TMP DP  RH WIND       PRES   REMARKS
WAUSEON*         N/A     82  82 100 NE6G17    30.03S HX  97
DEFIANCE       MOSUNNY   84  50  30 E7        30.02S
FINDLAY        MOSUNNY   85  52  32 NE8G16    30.00F
TOLEDO EXPRESS CLOUDY    83  51  33 NE10G18   30.03S
TOLEDO METCALF PTSUNNY   80  52  37 NE12      30.05R
LIMA           PTSUNNY   85  51  31 NE7       30.01S

$$
AND FOR LAKE MICHIGAN COASTAL AND OPEN LAKE BUOY OBSERVATIONS

STATION/POSITION TEMP    WIND        PRES    VSBY  WAVE
                 AIR SEA DIR/SP/G                  HT/PER
                 (F)     (DEG/KT/KT) (MB)    (MI)  (FT/S)
CALUMET HARBOR    66      50/  9/ 13 1014.7F
MICHIGAN CITY     80      90/  8/ 10   N/A
BURNS HARBOR      75      80/  7/ 10 1015.6F
SAINT JOSEPH      84     360/  1/  4 1016.9S
SOUTH LAKE BUOY   59 55   70/  4/  6 1015.8F         0
4 MI NW BRIDGMAN  75 67  130/  4/  6   N/A           0
MICHIGAN CITY     67 63   50/  6/  8   N/A           0

$$
&&




USA.gov is the U.S. government's official web portal to all federal, state and local government web resources and services.